This is the latest recevied weather packets stored in our database for station/object K5VP. If no packets are shown the sender has not sent any weather packets the latest 10 day(s).
| Time | Temp. | Humidity | Pressure | Rain* | Wind** | Luminosity | Snow |
|---|---|---|---|---|---|---|---|
| 1777668553 | 18.33° C | 36% | 1016.7 hPa | 0 mm | - | - | - |
| 1777668181 | 18.33° C | 37% | 1016.7 hPa | 0 mm | - | - | - |
| 1777667807 | 17.78° C | 36% | 1016.9 hPa | 0 mm | - | - | - |
| 1777667438 | 18.33° C | 35% | 1017.1 hPa | 0 mm | - | - | - |
| 1777667070 | 18.33° C | 34% | 1017.3 hPa | 0 mm | - | - | - |
| 1777666696 | 18.33° C | 38% | 1017.3 hPa | 0 mm | - | - | - |
| 1777666302 | 18.33° C | 35% | 1017.4 hPa | 0 mm | - | - | - |
| 1777665922 | 18.33° C | 37% | 1017.5 hPa | 0 mm | - | - | - |
| 1777665539 | 17.78° C | 36% | 1017.7 hPa | 0 mm | - | - | - |
| 1777665169 | 17.78° C | 37% | 1017.7 hPa | 0 mm | - | - | - |
| 1777664790 | 18.33° C | 37% | 1017.9 hPa | 0 mm | - | - | - |
| 1777664404 | 18.33° C | 37% | 1018 hPa | 0 mm | - | - | - |
| 1777664028 | 17.78° C | 35% | 1018 hPa | 0 mm | - | - | - |
| 1777663642 | 18.33° C | 36% | 1018.3 hPa | 0 mm | - | - | - |
| 1777663251 | 18.33° C | 38% | 1018.3 hPa | 0 mm | - | - | - |
| 1777662866 | 18.33° C | 36% | 1018.3 hPa | 0 mm | - | - | - |
| 1777662485 | 18.33° C | 36% | 1018.3 hPa | 0 mm | - | - | - |
| 1777662102 | 18.33° C | 36% | 1018.3 hPa | 0 mm | - | - | - |
| 1777661729 | 17.78° C | 38% | 1018.3 hPa | 0 mm | - | - | - |
| 1777661354 | 17.78° C | 37% | 1018.3 hPa | 0 mm | - | - | - |
| 1777660960 | 17.78° C | 37% | 1018.3 hPa | 0 mm | - | - | - |
| 1777660580 | 17.78° C | 38% | 1018.3 hPa | 0 mm | - | - | - |
| 1777660211 | 17.78° C | 38% | 1018.2 hPa | 0 mm | - | - | - |
| 1777659834 | 17.78° C | 38% | 1018.3 hPa | 0 mm | - | - | - |
| 1777659444 | 17.78° C | 40% | 1018.4 hPa | 0 mm | - | - | - |
* Rain latest hour (hover to see other rain measurements)
** Current wind speed in m/s (hover to see current wind gust speed)